• In Uzbekistan
  • List of Countries
  • For 7 days
  • Water Temperature
  • Satellite Maps
  • Weather Map
  • Weather Widgets
  • user-avatar
    Login

    Hourly Weather Rozdol

    Today, 18 December, Monday

    Time Temperature Precipitation Wind Pressure Humidity
    00:00 +2°C° 0.6 mm 7 mps 756 mmHg 83%
    01:00 0°C° 0.6 mm 7 mps 756 mmHg 84%
    02:00 +3°C° 0 mm 4 mps 755 mmHg 86%
    03:00 +1°C° 0.6 mm 5 mps 755 mmHg 87%
    04:00 0°C° 0.6 mm 7 mps 754 mmHg 87%
    05:00 0°C° 0.6 mm 8 mps 754 mmHg 87%
    06:00 0°C° 0.2 mm 7 mps 754 mmHg 87%
    07:00 0°C° 0.2 mm 7 mps 755 mmHg 86%
    08:00 -1°C° 0 mm 7 mps 754 mmHg 86%
    09:00 -1°C° 0.1 mm 7 mps 755 mmHg 85%
    10:00 -1°C° 0.1 mm 7 mps 755 mmHg 84%
    11:00 -1°C° 0.1 mm 7 mps 756 mmHg 83%
    12:00 -1°C° 0 mm 7 mps 756 mmHg 82%
    13:00 -1°C° 0 mm 7 mps 757 mmHg 80%
    14:00 -1°C° 0 mm 8 mps 757 mmHg 81%
    15:00 -2°C° 0 mm 8 mps 757 mmHg 79%
    16:00 -2°C° 0 mm 8 mps 758 mmHg 78%
    17:00 -2°C° 0 mm 7 mps 758 mmHg 77%
    18:00 -2°C° 0 mm 7 mps 759 mmHg 77%
    19:00 -2°C° 0 mm 7 mps 759 mmHg 77%
    20:00 -2°C° 0 mm 7 mps 759 mmHg 77%
    21:00 -2°C° 0 mm 7 mps 760 mmHg 77%
    22:00 -2°C° 0 mm 7 mps 760 mmHg 77%
    23:00 -2°C° 0 mm 7 mps 760 mmHg 77%

    Tomorrow, 19 December, Tuesday

    Time Temperature Precipitation Wind Pressure Humidity
    00:00 -2°C° 0 mm 6 mps 761 mmHg 77%
    01:00 -2°C° 0 mm 6 mps 761 mmHg 77%
    02:00 -3°C° 0 mm 6 mps 761 mmHg 78%
    03:00 -3°C° 0 mm 6 mps 762 mmHg 79%
    04:00 -2°C° 0 mm 5 mps 762 mmHg 80%
    05:00 -2°C° 0 mm 5 mps 762 mmHg 81%
    06:00 -4°C° 0 mm 5 mps 762 mmHg 81%
    07:00 -4°C° 0 mm 5 mps 763 mmHg 82%
    08:00 -4°C° 0 mm 5 mps 763 mmHg 83%
    09:00 -2°C° 0 mm 5 mps 763 mmHg 79%
    10:00 -2°C° 0 mm 5 mps 764 mmHg 75%
    11:00 -2°C° 0 mm 6 mps 764 mmHg 71%
    12:00 -2°C° 0 mm 6 mps 764 mmHg 71%
    13:00 -2°C° 0 mm 6 mps 765 mmHg 70%
    14:00 -2°C° 0 mm 6 mps 765 mmHg 70%
    15:00 -1°C° 0 mm 5 mps 765 mmHg 72%
    16:00 -1°C° 0 mm 5 mps 765 mmHg 73%
    17:00 -1°C° 0 mm 5 mps 766 mmHg 75%
    18:00 -2°C° 0 mm 4 mps 766 mmHg 76%
    19:00 -2°C° 0 mm 4 mps 766 mmHg 76%
    20:00 -2°C° 0 mm 4 mps 767 mmHg 77%
    21:00 -2°C° 0 mm 4 mps 767 mmHg 78%
    22:00 -3°C° 0 mm 4 mps 767 mmHg 79%
    23:00 -3°C° 0 mm 4 mps 767 mmHg 80%

    Day after tomorrow, 20 December, Wednesday

    Time Temperature Precipitation Wind Pressure Humidity
    00:00 -3°C° 0 mm 4 mps 767 mmHg 80%
    01:00 -3°C° 0 mm 4 mps 767 mmHg 80%
    02:00 -4°C° 0 mm 4 mps 767 mmHg 79%
    03:00 -4°C° 0 mm 4 mps 767 mmHg 80%
    04:00 -4°C° 0 mm 3 mps 767 mmHg 80%
    05:00 -2°C° 0 mm 3 mps 767 mmHg 80%
    06:00 -2°C° 0 mm 3 mps 767 mmHg 80%
    07:00 -2°C° 0 mm 3 mps 768 mmHg 80%
    08:00 -3°C° 0 mm 4 mps 768 mmHg 79%
    09:00 -2°C° 0 mm 4 mps 768 mmHg 75%
    10:00 -2°C° 0 mm 4 mps 768 mmHg 72%
    11:00 -1°C° 0 mm 4 mps 769 mmHg 68%
    12:00 -1°C° 0 mm 4 mps 769 mmHg 67%
    13:00 -1°C° 0 mm 4 mps 768 mmHg 66%
    14:00 -1°C° 0 mm 4 mps 768 mmHg 64%
    15:00 0°C° 0 mm 3 mps 769 mmHg 68%
    16:00 -1°C° 0 mm 3 mps 769 mmHg 71%
    17:00 -1°C° 0 mm 2 mps 769 mmHg 75%
    18:00 -1°C° 0 mm 2 mps 769 mmHg 77%
    19:00 -1°C° 0 mm 2 mps 770 mmHg 78%
    20:00 -1°C° 0 mm 2 mps 770 mmHg 80%
    21:00 -1°C° 0 mm 2 mps 770 mmHg 80%
    22:00 -2°C° 0 mm 2 mps 771 mmHg 80%
    23:00 -2°C° 0 mm 2 mps 771 mmHg 81%

    21 December, Thursday

    Time Temperature Precipitation Wind Pressure Humidity
    00:00 -2°C° 0 mm 2 mps 771 mmHg 80%
    01:00 -2°C° 0 mm 2 mps 771 mmHg 79%
    02:00 -2°C° 0 mm 2 mps 771 mmHg 79%
    03:00 -2°C° 0 mm 2 mps 771 mmHg 78%
    04:00 0°C° 0 mm 1 mps 771 mmHg 76%
    05:00 -1°C° 0 mm 1 mps 771 mmHg 75%
    06:00 -1°C° 0 mm 1 mps 772 mmHg 74%
    07:00 -1°C° 0 mm 1 mps 772 mmHg 72%
    08:00 -1°C° 0 mm 1 mps 772 mmHg 71%
    09:00 0°C° 0 mm 1 mps 772 mmHg 66%
    10:00 +1°C° 0 mm 1 mps 772 mmHg 61%
    11:00 +1°C° 0 mm 2 mps 772 mmHg 56%
    12:00 +1°C° 0 mm 2 mps 772 mmHg 56%
    13:00 +3°C° 0 mm 1 mps 771 mmHg 56%
    14:00 +3°C° 0 mm 1 mps 771 mmHg 56%
    15:00 +2°C° 0 mm 1 mps 770 mmHg 60%
    16:00 +1°C° 0 mm 1 mps 770 mmHg 65%
    17:00 +1°C° 0 mm 1 mps 770 mmHg 69%
    18:00 +1°C° 0 mm 1 mps 770 mmHg 71%
    19:00 +1°C° 0 mm 1 mps 770 mmHg 73%
    20:00 +1°C° 0 mm 1 mps 769 mmHg 74%
    21:00 +1°C° 0 mm 1 mps 769 mmHg 76%
    22:00 +1°C° 0 mm 1 mps 769 mmHg 79%
    23:00 -1°C° 0 mm 2 mps 769 mmHg 81%

    22 December, Friday

    Time Temperature Precipitation Wind Pressure Humidity
    00:00 0°C° 0 mm 1 mps 768 mmHg 82%
    01:00 0°C° 0 mm 1 mps 768 mmHg 84%
    02:00 0°C° 0 mm 1 mps 767 mmHg 86%
    03:00 0°C° 0 mm 1 mps 767 mmHg 86%
    04:00 -1°C° 0 mm 1 mps 766 mmHg 87%
    05:00 -1°C° 0 mm 1 mps 765 mmHg 88%
    06:00 -1°C° 0 mm 1 mps 765 mmHg 87%
    07:00 -3°C° 0 mm 2 mps 765 mmHg 87%
    08:00 -3°C° 0 mm 2 mps 765 mmHg 87%
    09:00 -2°C° 0 mm 2 mps 765 mmHg 80%
    10:00 -2°C° 0 mm 3 mps 764 mmHg 74%
    11:00 -1°C° 0 mm 3 mps 764 mmHg 67%
    12:00 -1°C° 0 mm 4 mps 764 mmHg 65%
    13:00 -1°C° 0 mm 4 mps 763 mmHg 62%
    14:00 -1°C° 0 mm 4 mps 762 mmHg 60%
    15:00 -1°C° 0 mm 4 mps 762 mmHg 63%
    16:00 -2°C° 0 mm 4 mps 762 mmHg 66%
    17:00 -2°C° 0 mm 3 mps 762 mmHg 69%
    18:00 -3°C° 0 mm 4 mps 762 mmHg 71%
    19:00 -3°C° 0 mm 4 mps 761 mmHg 72%
    20:00 -2°C° 0 mm 4 mps 761 mmHg 74%
    21:00 -2°C° 0 mm 4 mps 761 mmHg 74%
    22:00 -2°C° 0 mm 4 mps 761 mmHg 74%
    23:00 -1°C° 0 mm 3 mps 760 mmHg 74%

    23 December, Saturday

    Time Temperature Precipitation Wind Pressure Humidity
    00:00 -1°C° 0 mm 3 mps 760 mmHg 74%
    01:00 -2°C° 0 mm 3 mps 760 mmHg 74%
    02:00 -2°C° 0 mm 3 mps 760 mmHg 74%
    03:00 -2°C° 0 mm 3 mps 759 mmHg 76%
    04:00 -2°C° 0 mm 3 mps 759 mmHg 77%
    05:00 -2°C° 0 mm 3 mps 759 mmHg 79%
    06:00 -2°C° 0 mm 2 mps 759 mmHg 80%
    07:00 -2°C° 0 mm 2 mps 758 mmHg 82%
    08:00 -2°C° 0 mm 2 mps 758 mmHg 83%
    09:00 -1°C° 0 mm 3 mps 758 mmHg 79%
    10:00 0°C° 0 mm 3 mps 758 mmHg 75%
    11:00 +1°C° 0 mm 3 mps 758 mmHg 71%
    12:00 +1°C° 0 mm 3 mps 758 mmHg 71%
    13:00 0°C° 0 mm 4 mps 758 mmHg 70%
    14:00 0°C° 0 mm 4 mps 757 mmHg 70%
    15:00 0°C° 0 mm 3 mps 757 mmHg 75%
    16:00 -1°C° 0 mm 3 mps 758 mmHg 81%
    17:00 -2°C° 0 mm 3 mps 758 mmHg 87%
    18:00 -3°C° 0 mm 4 mps 758 mmHg 87%
    19:00 -3°C° 0 mm 4 mps 758 mmHg 87%
    20:00 -5°C° 0 mm 5 mps 759 mmHg 87%
    21:00 -5°C° 0 mm 5 mps 759 mmHg 86%
    22:00 -5°C° 0 mm 5 mps 759 mmHg 84%
    23:00 -5°C° 0 mm 6 mps 759 mmHg 82%
    Show more